contact:dominique.lefevre@mio.osupytheas.fr, maurice.libes@osupytheas.fr, didier.mallarino@osupytheas.fr
Project:EMSO http://www.emso-fr.org/EMSO-France
Depth: 2436.0 m
Title:EMSO Ligure Ouest : Data MII capteur MICROCAT
DateTime_Computer,Latitude,Longitude,Temperature,Conductivity,Pressure,DateTime_Instrument
DateTime_Computer,Latitude,Longitude,degC,S m-1,dbar,DateTime_Instrument
2020-09-18T00:00:11Z,42.805,6.029,13.2978,4.59981,2470.1,2020-9-18T02:01:03Z
2020-09-18T00:03:14Z,42.805,6.029,13.2978,4.59979,2470.087,2020-9-18T02:04:06Z
2020-09-18T00:06:16Z,42.805,6.029,13.2977,4.59979,2470.077,2020-9-18T02:07:08Z
2020-09-18T00:09:19Z,42.805,6.029,13.2978,4.59979,2470.053,2020-9-18T02:10:11Z
2020-09-18T00:12:20Z,42.805,6.029,13.2976,4.59980,2470.04,2020-9-18T02:13:12Z
2020-09-18T00:15:23Z,42.805,6.029,13.2982,4.59981,2470.04,2020-9-18T02:16:15Z
2020-09-18T00:18:26Z,42.805,6.029,13.2979,4.59980,2470.077,2020-9-18T02:19:18Z
2020-09-18T00:21:30Z,42.805,6.029,13.2981,4.59979,2470.04,2020-9-18T02:22:22Z
2020-09-18T00:24:33Z,42.805,6.029,13.2979,4.59981,2470.03,2020-9-18T02:25:25Z
2020-09-18T00:27:38Z,42.805,6.029,13.2982,4.59981,2470.04,2020-9-18T02:28:30Z
2020-09-18T00:30:42Z,42.805,6.029,13.2981,4.59980,2470.04,2020-9-18T02:31:34Z
2020-09-18T00:33:43Z,42.805,6.029,13.2976,4.59979,2470.04,2020-9-18T02:34:35Z
2020-09-18T00:36:47Z,42.805,6.029,13.2979,4.59979,2470.077,2020-9-18T02:37:39Z
2020-09-18T00:39:50Z,42.805,6.029,13.2980,4.59980,2470.04,2020-9-18T02:40:42Z
2020-09-18T00:42:55Z,42.805,6.029,13.2978,4.59979,2470.04,2020-9-18T02:43:47Z
2020-09-18T00:45:59Z,42.805,6.029,13.2979,4.59979,2470.04,2020-9-18T02:46:51Z
2020-09-18T00:49:01Z,42.805,6.029,13.2980,4.59979,2470.017,2020-9-18T02:49:53Z
2020-09-18T00:52:06Z,42.805,6.029,13.2981,4.59979,2470.007,2020-9-18T02:52:58Z
2020-09-18T00:55:09Z,42.805,6.029,13.2983,4.59980,2470.03,2020-9-18T02:56:01Z
2020-09-18T00:58:10Z,42.805,6.029,13.2976,4.59981,2470.077,2020-9-18T02:59:02Z
2020-09-18T01:01:12Z,42.805,6.029,13.2980,4.59979,2470.04,2020-9-18T03:02:04Z
2020-09-18T01:04:15Z,42.805,6.029,13.2978,4.59981,2470.03,2020-9-18T03:05:07Z
2020-09-18T01:07:20Z,42.805,6.029,13.2980,4.59980,2470.017,2020-9-18T03:08:11Z
2020-09-18T01:10:22Z,42.805,6.029,13.2979,4.59979,2470.03,2020-9-18T03:11:14Z
2020-09-18T01:13:27Z,42.805,6.029,13.2979,4.59980,2470.017,2020-9-18T03:14:18Z
2020-09-18T01:16:29Z,42.805,6.029,13.2976,4.59980,2469.993,2020-9-18T03:17:21Z
2020-09-18T01:19:32Z,42.805,6.029,13.2979,4.59979,2469.993,2020-9-18T03:20:24Z
2020-09-18T01:22:36Z,42.805,6.029,13.2976,4.59980,2469.984,2020-9-18T03:23:28Z
2020-09-18T01:25:37Z,42.805,6.029,13.2976,4.59979,2470.007,2020-9-18T03:26:29Z
2020-09-18T01:28:40Z,42.805,6.029,13.2979,4.59979,2470.017,2020-9-18T03:29:32Z
2020-09-18T01:31:43Z,42.805,6.029,13.2982,4.59980,2469.97,2020-9-18T03:32:35Z
2020-09-18T01:34:45Z,42.805,6.029,13.2977,4.59979,2470.017,2020-9-18T03:35:37Z
2020-09-18T01:37:47Z,42.805,6.029,13.2976,4.59980,2470.017,2020-9-18T03:38:39Z
2020-09-18T01:40:51Z,42.805,6.029,13.2977,4.59978,2469.993,2020-9-18T03:41:43Z
2020-09-18T01:43:56Z,42.805,6.029,13.2978,4.59978,2470.017,2020-9-18T03:44:47Z
2020-09-18T01:47:00Z,42.805,6.029,13.2977,4.59979,2470.03,2020-9-18T03:47:52Z
2020-09-18T01:50:01Z,42.805,6.029,13.2980,4.59978,2469.993,2020-9-18T03:50:53Z
2020-09-18T01:53:03Z,42.805,6.029,13.2982,4.59981,2470.007,2020-9-18T03:53:55Z
2020-09-18T01:56:05Z,42.805,6.029,13.2979,4.59979,2469.993,2020-9-18T03:56:57Z
2020-09-18T01:59:09Z,42.805,6.029,13.2979,4.59978,2469.993,2020-9-18T04:00:01Z
2020-09-18T02:02:13Z,42.805,6.029,13.2977,4.59980,2469.97,2020-9-18T04:03:05Z
2020-09-18T02:05:16Z,42.805,6.029,13.2981,4.59978,2470.007,2020-9-18T04:06:08Z
2020-09-18T02:08:19Z,42.805,6.029,13.2981,4.59980,2469.993,2020-9-18T04:09:10Z
2020-09-18T02:11:22Z,42.805,6.029,13.2979,4.59978,2469.993,2020-9-18T04:12:14Z
2020-09-18T02:14:25Z,42.805,6.029,13.2977,4.59979,2470.007,2020-9-18T04:15:16Z
2020-09-18T02:17:29Z,42.805,6.029,13.2979,4.59979,2469.984,2020-9-18T04:18:21Z
2020-09-18T02:20:31Z,42.805,6.029,13.2980,4.59980,2469.993,2020-9-18T04:21:23Z
2020-09-18T02:23:35Z,42.805,6.029,13.2978,4.59979,2469.97,2020-9-18T04:24:27Z
2020-09-18T02:26:37Z,42.805,6.029,13.2980,4.59979,2470.007,2020-9-18T04:27:29Z
2020-09-18T02:29:40Z,42.805,6.029,13.2976,4.59978,2470.007,2020-9-18T04:30:32Z
2020-09-18T02:32:45Z,42.805,6.029,13.2977,4.59978,2470.017,2020-9-18T04:33:37Z
2020-09-18T02:35:48Z,42.805,6.029,13.2977,4.59980,2470.007,2020-9-18T04:36:40Z
2020-09-18T02:38:52Z,42.805,6.029,13.2975,4.59979,2469.984,2020-9-18T04:39:44Z
2020-09-18T02:41:54Z,42.805,6.029,13.2980,4.59979,2469.97,2020-9-18T04:42:46Z
2020-09-18T02:44:56Z,42.805,6.029,13.2974,4.59979,2469.993,2020-9-18T04:45:48Z
2020-09-18T02:48:00Z,42.805,6.029,13.2980,4.59978,2470.007,2020-9-18T04:48:52Z
2020-09-18T02:51:04Z,42.805,6.029,13.2978,4.59979,2470.007,2020-9-18T04:51:56Z
2020-09-18T02:54:08Z,42.805,6.029,13.2977,4.59978,2469.993,2020-9-18T04:55:00Z
2020-09-18T02:57:11Z,42.805,6.029,13.2981,4.59980,2469.993,2020-9-18T04:58:03Z
2020-09-18T03:00:14Z,42.805,6.029,13.2977,4.59978,2470.017,2020-9-18T05:01:06Z
2020-09-18T03:03:17Z,42.805,6.029,13.2977,4.59979,2470.007,2020-9-18T05:04:09Z
2020-09-18T03:06:19Z,42.805,6.029,13.2975,4.59979,2470.017,2020-9-18T05:07:11Z
2020-09-18T03:09:23Z,42.805,6.029,13.2978,4.59978,2469.993,2020-9-18T05:10:15Z
2020-09-18T03:12:26Z,42.805,6.029,13.2977,4.59978,2469.993,2020-9-18T05:13:18Z
2020-09-18T03:15:31Z,42.805,6.029,13.2978,4.59978,2469.993,2020-9-18T05:16:22Z
2020-09-18T03:18:34Z,42.805,6.029,13.2979,4.59978,2470.007,2020-9-18T05:19:26Z
2020-09-18T03:21:37Z,42.805,6.029,13.2979,4.59980,2469.993,2020-9-18T05:22:29Z
2020-09-18T03:24:41Z,42.805,6.029,13.2978,4.59978,2470.017,2020-9-18T05:25:33Z
2020-09-18T03:27:44Z,42.805,6.029,13.2978,4.59978,2470.017,2020-9-18T05:28:36Z
2020-09-18T03:30:48Z,42.805,6.029,13.2976,4.59981,2470.03,2020-9-18T05:31:39Z
2020-09-18T03:33:51Z,42.805,6.029,13.2979,4.59979,2470.053,2020-9-18T05:34:43Z
2020-09-18T03:36:55Z,42.805,6.029,13.2975,4.59979,2470.017,2020-9-18T05:37:47Z
2020-09-18T03:39:59Z,42.805,6.029,13.2982,4.59980,2470.03,2020-9-18T05:40:51Z
2020-09-18T03:43:02Z,42.805,6.029,13.2979,4.59979,2470.04,2020-9-18T05:43:54Z
2020-09-18T03:46:05Z,42.805,6.029,13.2980,4.59978,2470.017,2020-9-18T05:46:57Z
2020-09-18T03:49:08Z,42.805,6.029,13.2978,4.59978,2470.017,2020-9-18T05:50:00Z
2020-09-18T03:52:13Z,42.805,6.029,13.2978,4.59978,2470.03,2020-9-18T05:53:05Z
2020-09-18T03:55:17Z,42.805,6.029,13.2975,4.59978,2470.04,2020-9-18T05:56:09Z
2020-09-18T03:58:20Z,42.805,6.029,13.2976,4.59979,2470.017,2020-9-18T05:59:12Z
2020-09-18T04:01:23Z,42.805,6.029,13.2981,4.59978,2470.053,2020-9-18T06:02:15Z
2020-09-18T04:04:27Z,42.805,6.029,13.2979,4.59978,2470.077,2020-9-18T06:05:19Z
2020-09-18T04:07:29Z,42.805,6.029,13.2982,4.59978,2470.063,2020-9-18T06:08:20Z
2020-09-18T04:10:31Z,42.805,6.029,13.2976,4.59978,2470.077,2020-9-18T06:11:22Z
2020-09-18T04:13:34Z,42.805,6.029,13.2979,4.59985,2470.077,2020-9-18T06:14:26Z
2020-09-18T04:16:39Z,42.805,6.029,13.2978,4.59979,2470.04,2020-9-18T06:17:31Z
2020-09-18T04:19:43Z,42.805,6.029,13.2978,4.59981,2470.063,2020-9-18T06:20:35Z
2020-09-18T04:22:47Z,42.805,6.029,13.2974,4.59979,2470.04,2020-9-18T06:23:39Z
2020-09-18T04:25:52Z,42.805,6.029,13.2979,4.59979,2470.1,2020-9-18T06:26:44Z
2020-09-18T04:28:56Z,42.805,6.029,13.2978,4.59979,2470.077,2020-9-18T06:29:48Z
2020-09-18T04:31:59Z,42.805,6.029,13.2980,4.59979,2470.087,2020-9-18T06:32:51Z
2020-09-18T04:35:03Z,42.805,6.029,13.2977,4.59981,2470.1,2020-9-18T06:35:55Z
2020-09-18T04:38:05Z,42.805,6.029,13.2978,4.59979,2470.087,2020-9-18T06:38:57Z
2020-09-18T04:41:07Z,42.805,6.029,13.2977,4.59979,2470.087,2020-9-18T06:41:58Z
2020-09-18T04:44:09Z,42.805,6.029,13.2975,4.59979,2470.087,2020-9-18T06:45:01Z
2020-09-18T04:47:10Z,42.805,6.029,13.2976,4.59979,2470.087,2020-9-18T06:48:02Z
2020-09-18T04:50:12Z,42.805,6.029,13.2981,4.59979,2470.087,2020-9-18T06:51:04Z
2020-09-18T04:53:17Z,42.805,6.029,13.2981,4.59982,2470.1,2020-9-18T06:54:09Z
2020-09-18T04:56:20Z,42.805,6.029,13.2979,4.59981,2470.11,2020-9-18T06:57:12Z
2020-09-18T04:59:21Z,42.805,6.029,13.2982,4.59981,2470.124,2020-9-18T07:00:13Z
2020-09-18T05:02:23Z,42.805,6.029,13.2976,4.59980,2470.11,2020-9-18T07:03:15Z
2020-09-18T05:05:27Z,42.805,6.029,13.2979,4.59981,2470.11,2020-9-18T07:06:19Z
2020-09-18T05:08:28Z,42.805,6.029,13.2980,4.59978,2470.124,2020-9-18T07:09:20Z
2020-09-18T05:11:32Z,42.805,6.029,13.2982,4.59979,2470.133,2020-9-18T07:12:24Z
2020-09-18T05:14:35Z,42.805,6.029,13.2982,4.59980,2470.11,2020-9-18T07:15:27Z
2020-09-18T05:17:36Z,42.805,6.029,13.2979,4.59980,2470.124,2020-9-18T07:18:28Z
2020-09-18T05:20:40Z,42.805,6.029,13.2980,4.59979,2470.133,2020-9-18T07:21:31Z
2020-09-18T05:23:43Z,42.805,6.029,13.2979,4.59981,2470.147,2020-9-18T07:24:35Z
2020-09-18T05:26:47Z,42.805,6.029,13.2978,4.59979,2470.133,2020-9-18T07:27:39Z
2020-09-18T05:29:49Z,42.805,6.029,13.2979,4.59981,2470.124,2020-9-18T07:30:41Z
2020-09-18T05:32:53Z,42.805,6.029,13.2981,4.59981,2470.147,2020-9-18T07:33:45Z
2020-09-18T05:35:57Z,42.805,6.029,13.2982,4.59981,2470.156,2020-9-18T07:36:49Z
2020-09-18T05:39:00Z,42.805,6.029,13.2980,4.59981,2470.171,2020-9-18T07:39:52Z
2020-09-18T05:42:04Z,42.805,6.029,13.2975,4.59983,2470.156,2020-9-18T07:42:56Z
2020-09-18T05:45:06Z,42.805,6.029,13.2979,4.59981,2470.133,2020-9-18T07:45:58Z
2020-09-18T05:48:09Z,42.805,6.029,13.2979,4.59981,2470.133,2020-9-18T07:49:01Z
2020-09-18T05:51:13Z,42.805,6.029,13.2978,4.59982,2470.18,2020-9-18T07:52:05Z
2020-09-18T05:54:16Z,42.805,6.029,13.2979,4.59980,2470.194,2020-9-18T07:55:08Z
2020-09-18T05:57:20Z,42.805,6.029,13.2980,4.59979,2470.18,2020-9-18T07:58:12Z
2020-09-18T06:00:22Z,42.805,6.029,13.2979,4.59982,2470.194,2020-9-18T08:01:14Z
2020-09-18T06:03:26Z,42.805,6.029,13.2975,4.59980,2470.171,2020-9-18T08:04:18Z
2020-09-18T06:06:27Z,42.805,6.029,13.2978,4.59979,2470.194,2020-9-18T08:07:19Z
2020-09-18T06:09:30Z,42.805,6.029,13.2978,4.59980,2470.194,2020-9-18T08:10:22Z
2020-09-18T06:12:31Z,42.805,6.029,13.2979,4.59981,2470.171,2020-9-18T08:13:23Z
2020-09-18T06:15:35Z,42.805,6.029,13.2979,4.59979,2470.217,2020-9-18T08:16:27Z
2020-09-18T06:18:38Z,42.805,6.029,13.2980,4.59980,2470.203,2020-9-18T08:19:30Z
2020-09-18T06:21:41Z,42.805,6.029,13.2979,4.59979,2470.217,2020-9-18T08:22:33Z
2020-09-18T06:24:45Z,42.805,6.029,13.2980,4.59979,2470.24,2020-9-18T08:25:37Z
2020-09-18T06:27:48Z,42.805,6.029,13.2980,4.59981,2470.18,2020-9-18T08:28:40Z
2020-09-18T06:30:51Z,42.805,6.029,13.2980,4.59980,2470.217,2020-9-18T08:31:43Z
2020-09-18T06:33:54Z,42.805,6.029,13.2975,4.59980,2470.18,2020-9-18T08:34:46Z
2020-09-18T06:36:59Z,42.805,6.029,13.2983,4.59979,2470.18,2020-9-18T08:37:51Z
2020-09-18T06:40:03Z,42.805,6.029,13.2979,4.59981,2470.194,2020-9-18T08:40:55Z
2020-09-18T06:43:08Z,42.805,6.029,13.2979,4.59980,2470.217,2020-9-18T08:44:00Z
2020-09-18T06:46:13Z,42.805,6.029,13.2980,4.59984,2470.24,2020-9-18T08:47:05Z
2020-09-18T06:49:15Z,42.805,6.029,13.2976,4.59981,2470.227,2020-9-18T08:50:07Z
2020-09-18T06:52:18Z,42.805,6.029,13.2980,4.59981,2470.203,2020-9-18T08:53:10Z
2020-09-18T06:55:20Z,42.805,6.029,13.2979,4.59981,2470.227,2020-9-18T08:56:12Z
2020-09-18T06:58:21Z,42.805,6.029,13.2983,4.59980,2470.203,2020-9-18T08:59:13Z
2020-09-18T07:01:25Z,42.805,6.029,13.2983,4.59981,2470.25,2020-9-18T09:02:17Z
2020-09-18T07:04:30Z,42.805,6.029,13.2981,4.59980,2470.24,2020-9-18T09:05:22Z
2020-09-18T07:07:33Z,42.805,6.029,13.2979,4.59981,2470.217,2020-9-18T09:08:25Z
2020-09-18T07:10:36Z,42.805,6.029,13.2979,4.59980,2470.227,2020-9-18T09:11:28Z
2020-09-18T07:13:40Z,42.805,6.029,13.2979,4.59981,2470.203,2020-9-18T09:14:32Z
2020-09-18T07:16:43Z,42.805,6.029,13.2980,4.59982,2470.18,2020-9-18T09:17:35Z
2020-09-18T07:19:47Z,42.805,6.029,13.2983,4.59981,2470.227,2020-9-18T09:20:39Z
2020-09-18T07:22:49Z,42.805,6.029,13.2980,4.59980,2470.227,2020-9-18T09:23:40Z
2020-09-18T07:25:50Z,42.805,6.029,13.2976,4.59983,2470.24,2020-9-18T09:26:42Z
2020-09-18T07:28:52Z,42.805,6.029,13.2979,4.59980,2470.203,2020-9-18T09:29:44Z
2020-09-18T07:31:54Z,42.805,6.029,13.2980,4.59982,2470.203,2020-9-18T09:32:46Z
2020-09-18T07:34:58Z,42.805,6.029,13.2978,4.59981,2470.203,2020-9-18T09:35:50Z
2020-09-18T07:38:00Z,42.805,6.029,13.2984,4.59980,2470.227,2020-9-18T09:38:52Z
2020-09-18T07:41:04Z,42.805,6.029,13.2979,4.59982,2470.217,2020-9-18T09:41:56Z
2020-09-18T07:44:06Z,42.805,6.029,13.2978,4.59981,2470.203,2020-9-18T09:44:58Z
2020-09-18T07:47:08Z,42.805,6.029,13.2976,4.59981,2470.203,2020-9-18T09:48:00Z
2020-09-18T07:50:12Z,42.805,6.029,13.2976,4.59980,2470.203,2020-9-18T09:51:04Z
2020-09-18T07:53:15Z,42.805,6.029,13.2976,4.59981,2470.217,2020-9-18T09:54:07Z
2020-09-18T07:56:18Z,42.805,6.029,13.2983,4.59981,2470.24,2020-9-18T09:57:10Z
2020-09-18T07:59:22Z,42.805,6.029,13.2983,4.59982,2470.217,2020-9-18T10:00:13Z
2020-09-18T08:02:24Z,42.805,6.029,13.2984,4.59981,2470.227,2020-9-18T10:03:16Z
2020-09-18T08:05:26Z,42.805,6.029,13.2982,4.59981,2470.217,2020-9-18T10:06:18Z
2020-09-18T08:08:29Z,42.805,6.029,13.2980,4.59980,2470.24,2020-9-18T10:09:21Z
2020-09-18T08:11:33Z,42.805,6.029,13.2982,4.59981,2470.25,2020-9-18T10:12:24Z
2020-09-18T08:14:33Z,42.805,6.029,13.2981,4.59980,2470.24,2020-9-18T10:15:25Z
2020-09-18T08:17:35Z,42.805,6.029,13.2978,4.59981,2470.24,2020-9-18T10:18:27Z
2020-09-18T08:20:40Z,42.805,6.029,13.2979,4.59981,2470.24,2020-9-18T10:21:32Z
2020-09-18T08:23:45Z,42.805,6.029,13.2979,4.59983,2470.227,2020-9-18T10:24:36Z
2020-09-18T08:26:47Z,42.805,6.029,13.2979,4.59981,2470.24,2020-9-18T10:27:39Z
2020-09-18T08:29:51Z,42.805,6.029,13.2977,4.59981,2470.24,2020-9-18T10:30:43Z
2020-09-18T08:32:56Z,42.805,6.029,13.2979,4.59981,2470.227,2020-9-18T10:33:48Z
2020-09-18T08:35:57Z,42.805,6.029,13.2981,4.59983,2470.203,2020-9-18T10:36:49Z
2020-09-18T08:39:01Z,42.805,6.029,13.2980,4.59981,2470.143,2020-9-18T10:39:53Z
2020-09-18T08:42:02Z,42.805,6.029,13.2979,4.59981,2470.24,2020-9-18T10:42:54Z
2020-09-18T08:45:04Z,42.805,6.029,13.2982,4.59981,2470.18,2020-9-18T10:45:56Z
2020-09-18T08:48:09Z,42.805,6.029,13.2981,4.59984,2470.203,2020-9-18T10:49:00Z
2020-09-18T08:51:11Z,42.805,6.029,13.2977,4.59984,2470.203,2020-9-18T10:52:03Z
2020-09-18T08:54:15Z,42.805,6.029,13.2976,4.59980,2470.227,2020-9-18T10:55:07Z
2020-09-18T08:57:16Z,42.805,6.029,13.2974,4.59980,2470.24,2020-9-18T10:58:08Z
2020-09-18T09:00:21Z,42.805,6.029,13.2979,4.59981,2470.156,2020-9-18T11:01:12Z
2020-09-18T09:03:25Z,42.805,6.029,13.2982,4.59981,2470.203,2020-9-18T11:04:17Z
2020-09-18T09:06:29Z,42.805,6.029,13.2982,4.59981,2470.217,2020-9-18T11:07:20Z
2020-09-18T09:09:33Z,42.805,6.029,13.2980,4.59981,2470.203,2020-9-18T11:10:25Z
2020-09-18T09:12:37Z,42.805,6.029,13.2975,4.59981,2470.217,2020-9-18T11:13:29Z
2020-09-18T09:15:38Z,42.805,6.029,13.2984,4.59981,2470.217,2020-9-18T11:16:30Z
2020-09-18T09:18:42Z,42.805,6.029,13.2979,4.59981,2470.227,2020-9-18T11:19:34Z
2020-09-18T09:21:45Z,42.805,6.029,13.2976,4.59981,2470.203,2020-9-18T11:22:37Z
2020-09-18T09:24:48Z,42.805,6.029,13.2979,4.59984,2470.18,2020-9-18T11:25:40Z
2020-09-18T09:27:51Z,42.805,6.029,13.2980,4.59983,2470.194,2020-9-18T11:28:43Z
2020-09-18T09:30:56Z,42.805,6.029,13.2982,4.59982,2470.227,2020-9-18T11:31:48Z
2020-09-18T09:34:01Z,42.805,6.029,13.2978,4.59981,2470.217,2020-9-18T11:34:52Z
2020-09-18T09:37:05Z,42.805,6.029,13.2982,4.59981,2470.18,2020-9-18T11:37:57Z
2020-09-18T09:40:09Z,42.805,6.029,13.2982,4.59981,2470.156,2020-9-18T11:41:01Z
2020-09-18T09:43:14Z,42.805,6.029,13.2980,4.59981,2470.171,2020-9-18T11:44:06Z
2020-09-18T09:46:18Z,42.805,6.029,13.2984,4.59981,2470.18,2020-9-18T11:47:09Z
2020-09-18T09:49:19Z,42.805,6.029,13.2978,4.59981,2470.171,2020-9-18T11:50:11Z
2020-09-18T09:52:21Z,42.805,6.029,13.2980,4.59981,2470.194,2020-9-18T11:53:13Z
2020-09-18T09:55:22Z,42.805,6.029,13.2982,4.59981,2470.171,2020-9-18T11:56:14Z
2020-09-18T09:58:27Z,42.805,6.029,13.2979,4.59981,2470.147,2020-9-18T11:59:18Z
2020-09-18T10:01:31Z,42.805,6.029,13.2984,4.59981,2470.171,2020-9-18T12:02:22Z
2020-09-18T10:04:34Z,42.805,6.029,13.2982,4.59981,2470.171,2020-9-18T12:05:26Z
2020-09-18T10:07:39Z,42.805,6.029,13.2981,4.59980,2470.156,2020-9-18T12:08:31Z
2020-09-18T10:10:42Z,42.805,6.029,13.2980,4.59981,2470.156,2020-9-18T12:11:34Z
2020-09-18T10:13:43Z,42.805,6.029,13.2979,4.59981,2470.156,2020-9-18T12:14:35Z
2020-09-18T10:16:48Z,42.805,6.029,13.2979,4.59980,2470.156,2020-9-18T12:17:40Z
2020-09-18T10:19:51Z,42.805,6.029,13.2979,4.59981,2470.147,2020-9-18T12:20:43Z
2020-09-18T10:22:55Z,42.805,6.029,13.2980,4.59981,2470.133,2020-9-18T12:23:46Z
2020-09-18T10:25:56Z,42.805,6.029,13.2982,4.59981,2470.133,2020-9-18T12:26:48Z
2020-09-18T10:28:58Z,42.805,6.029,13.2980,4.59981,2470.124,2020-9-18T12:29:50Z
2020-09-18T10:32:01Z,42.805,6.029,13.2980,4.59981,2470.133,2020-9-18T12:32:53Z
2020-09-18T10:35:06Z,42.805,6.029,13.2979,4.59981,2470.133,2020-9-18T12:35:58Z
2020-09-18T10:38:07Z,42.805,6.029,13.2979,4.59981,2470.124,2020-9-18T12:38:59Z
2020-09-18T10:41:11Z,42.805,6.029,13.2979,4.59986,2470.147,2020-9-18T12:42:03Z
2020-09-18T10:44:14Z,42.805,6.029,13.2978,4.59980,2470.147,2020-9-18T12:45:06Z
2020-09-18T10:47:17Z,42.805,6.029,13.2977,4.59980,2470.124,2020-9-18T12:48:09Z
2020-09-18T10:50:19Z,42.805,6.029,13.2981,4.59980,2470.11,2020-9-18T12:51:11Z
2020-09-18T10:53:23Z,42.805,6.029,13.2981,4.59981,2470.124,2020-9-18T12:54:15Z
2020-09-18T10:56:26Z,42.805,6.029,13.2979,4.59981,2470.087,2020-9-18T12:57:18Z
2020-09-18T10:59:28Z,42.805,6.029,13.2979,4.59982,2470.133,2020-9-18T13:00:20Z
2020-09-18T11:02:32Z,42.805,6.029,13.2983,4.59982,2470.087,2020-9-18T13:03:24Z
2020-09-18T11:05:34Z,42.805,6.029,13.2980,4.59981,2470.11,2020-9-18T13:06:26Z
2020-09-18T11:08:37Z,42.805,6.029,13.2981,4.59981,2470.11,2020-9-18T13:09:29Z
2020-09-18T11:11:39Z,42.805,6.029,13.2981,4.59981,2470.133,2020-9-18T13:12:31Z
2020-09-18T11:14:42Z,42.805,6.029,13.2976,4.59981,2470.1,2020-9-18T13:15:34Z
2020-09-18T11:17:46Z,42.805,6.029,13.2982,4.59981,2470.063,2020-9-18T13:18:38Z
2020-09-18T11:20:50Z,42.805,6.029,13.2979,4.59982,2470.087,2020-9-18T13:21:42Z
2020-09-18T11:23:53Z,42.805,6.029,13.2976,4.59981,2470.077,2020-9-18T13:24:45Z
2020-09-18T11:26:56Z,42.805,6.029,13.2979,4.59981,2470.11,2020-9-18T13:27:48Z
2020-09-18T11:29:58Z,42.805,6.029,13.2976,4.59980,2470.087,2020-9-18T13:30:50Z
2020-09-18T11:33:00Z,42.805,6.029,13.2983,4.59981,2470.063,2020-9-18T13:33:52Z
2020-09-18T11:36:01Z,42.805,6.029,13.2978,4.59981,2470.147,2020-9-18T13:36:53Z
2020-09-18T11:39:05Z,42.805,6.029,13.2979,4.59981,2470.063,2020-9-18T13:39:57Z
2020-09-18T11:42:06Z,42.805,6.029,13.2982,4.59981,2470.087,2020-9-18T13:42:58Z
2020-09-18T11:45:09Z,42.805,6.029,13.2980,4.59980,2470.063,2020-9-18T13:46:01Z
2020-09-18T11:48:14Z,42.805,6.029,13.2979,4.59980,2470.063,2020-9-18T13:49:06Z
2020-09-18T11:51:17Z,42.805,6.029,13.2979,4.59980,2470.063,2020-9-18T13:52:09Z
2020-09-18T11:54:21Z,42.805,6.029,13.2979,4.59981,2470.04,2020-9-18T13:55:13Z
2020-09-18T11:57:24Z,42.805,6.029,13.2980,4.59980,2470.04,2020-9-18T13:58:16Z
2020-09-18T12:00:27Z,42.805,6.029,13.2984,4.59980,2470.017,2020-9-18T14:01:19Z
2020-09-18T12:03:31Z,42.805,6.029,13.2984,4.59981,2470.063,2020-9-18T14:04:23Z
2020-09-18T12:06:34Z,42.805,6.029,13.2981,4.59982,2470.053,2020-9-18T14:07:26Z
2020-09-18T12:09:38Z,42.805,6.029,13.2980,4.59983,2470.04,2020-9-18T14:10:30Z
2020-09-18T12:12:41Z,42.805,6.029,13.2982,4.59981,2470.03,2020-9-18T14:13:33Z
2020-09-18T12:15:43Z,42.805,6.029,13.2980,4.59980,2470.063,2020-9-18T14:16:35Z
2020-09-18T12:18:45Z,42.805,6.029,13.2977,4.59981,2470.04,2020-9-18T14:19:37Z
2020-09-18T12:21:49Z,42.805,6.029,13.2980,4.59981,2470.063,2020-9-18T14:22:41Z
2020-09-18T12:24:51Z,42.805,6.029,13.2979,4.59980,2470.04,2020-9-18T14:25:43Z
2020-09-18T12:27:52Z,42.805,6.029,13.2979,4.59983,2470.04,2020-9-18T14:28:44Z
2020-09-18T12:30:55Z,42.805,6.029,13.2980,4.59981,2469.993,2020-9-18T14:31:47Z
2020-09-18T12:33:58Z,42.805,6.029,13.2979,4.59981,2470.04,2020-9-18T14:34:50Z
2020-09-18T12:37:00Z,42.805,6.029,13.2979,4.59981,2470.04,2020-9-18T14:37:52Z
2020-09-18T12:40:05Z,42.805,6.029,13.2979,4.59980,2470.017,2020-9-18T14:40:55Z
2020-09-18T12:43:06Z,42.805,6.029,13.2980,4.59980,2469.993,2020-9-18T14:43:58Z
2020-09-18T12:46:09Z,42.805,6.029,13.2983,4.59980,2470.053,2020-9-18T14:47:00Z
2020-09-18T12:49:10Z,42.805,6.029,13.2977,4.59980,2470.03,2020-9-18T14:50:02Z
2020-09-18T12:52:14Z,42.805,6.029,13.2980,4.59980,2470.017,2020-9-18T14:53:06Z
2020-09-18T12:55:17Z,42.805,6.029,13.2981,4.59983,2470.04,2020-9-18T14:56:09Z
2020-09-18T12:58:19Z,42.805,6.029,13.2977,4.59981,2470.04,2020-9-18T14:59:11Z
2020-09-18T13:01:20Z,42.805,6.029,13.2976,4.59980,2470.03,2020-9-18T15:02:12Z
2020-09-18T13:04:24Z,42.805,6.029,13.2983,4.59983,2470.03,2020-9-18T15:05:16Z
2020-09-18T13:07:27Z,42.805,6.029,13.2979,4.59979,2470.053,2020-9-18T15:08:19Z
2020-09-18T13:10:31Z,42.805,6.029,13.2979,4.59981,2470.04,2020-9-18T15:11:23Z
2020-09-18T13:13:32Z,42.805,6.029,13.2976,4.59984,2470.03,2020-9-18T15:14:24Z
2020-09-18T13:16:34Z,42.805,6.029,13.2982,4.59983,2469.97,2020-9-18T15:17:26Z
2020-09-18T13:19:39Z,42.805,6.029,13.2982,4.59981,2470.007,2020-9-18T15:20:31Z
2020-09-18T13:22:40Z,42.805,6.029,13.2981,4.59981,2470.007,2020-9-18T15:23:32Z
2020-09-18T13:25:45Z,42.805,6.029,13.2977,4.59982,2470.04,2020-9-18T15:26:37Z
2020-09-18T13:28:50Z,42.805,6.029,13.2979,4.59983,2470.017,2020-9-18T15:29:42Z
2020-09-18T13:31:51Z,42.805,6.029,13.2983,4.59981,2470.007,2020-9-18T15:32:43Z
2020-09-18T13:34:54Z,42.805,6.029,13.2982,4.59980,2470.017,2020-9-18T15:35:46Z
2020-09-18T13:37:56Z,42.805,6.029,13.2978,4.59980,2470.017,2020-9-18T15:38:48Z
2020-09-18T13:41:01Z,42.805,6.029,13.2982,4.59980,2470.03,2020-9-18T15:41:53Z
2020-09-18T13:44:03Z,42.805,6.029,13.2981,4.59981,2470.017,2020-9-18T15:44:55Z
2020-09-18T13:47:07Z,42.805,6.029,13.2984,4.59981,2470.007,2020-9-18T15:47:59Z
2020-09-18T13:50:12Z,42.805,6.029,13.2979,4.59980,2470.03,2020-9-18T15:51:04Z
2020-09-18T13:53:13Z,42.805,6.029,13.2979,4.59982,2469.97,2020-9-18T15:54:05Z
2020-09-18T13:56:17Z,42.805,6.029,13.2980,4.59980,2470.03,2020-9-18T15:57:08Z
2020-09-18T13:59:20Z,42.805,6.029,13.2982,4.59981,2470.017,2020-9-18T16:00:12Z
2020-09-18T14:02:23Z,42.805,6.029,13.2981,4.59981,2470.007,2020-9-18T16:03:15Z
2020-09-18T14:05:27Z,42.805,6.029,13.2982,4.59980,2470.017,2020-9-18T16:06:19Z
2020-09-18T14:08:31Z,42.805,6.029,13.2982,4.59981,2469.97,2020-9-18T16:09:23Z
2020-09-18T14:11:35Z,42.805,6.029,13.2982,4.59983,2470.017,2020-9-18T16:12:27Z
2020-09-18T14:14:38Z,42.805,6.029,13.2982,4.59984,2470.017,2020-9-18T16:15:30Z
2020-09-18T14:17:40Z,42.805,6.029,13.2981,4.59980,2469.979,2020-9-18T16:18:32Z
2020-09-18T14:20:44Z,42.805,6.029,13.2980,4.59981,2469.993,2020-9-18T16:21:36Z
2020-09-18T14:23:49Z,42.805,6.029,13.2979,4.59980,2469.993,2020-9-18T16:24:41Z
2020-09-18T14:26:53Z,42.805,6.029,13.2979,4.59980,2470.017,2020-9-18T16:27:45Z
2020-09-18T14:29:56Z,42.805,6.029,13.2979,4.59981,2470.007,2020-9-18T16:30:48Z
2020-09-18T14:33:00Z,42.805,6.029,13.2974,4.59980,2469.993,2020-9-18T16:33:52Z
2020-09-18T14:36:02Z,42.805,6.029,13.2988,4.59981,2469.993,2020-9-18T16:36:54Z
2020-09-18T14:39:05Z,42.805,6.029,13.2979,4.59981,2469.993,2020-9-18T16:39:57Z
2020-09-18T14:42:06Z,42.805,6.029,13.2982,4.59981,2469.993,2020-9-18T16:42:58Z
2020-09-18T14:45:11Z,42.805,6.029,13.2982,4.59983,2469.984,2020-9-18T16:46:03Z
2020-09-18T14:48:15Z,42.805,6.029,13.2982,4.59981,2470.04,2020-9-18T16:49:07Z
2020-09-18T14:51:19Z,42.805,6.029,13.2983,4.59981,2470.026,2020-9-18T16:52:11Z
2020-09-18T14:54:23Z,42.805,6.029,13.2979,4.59982,2469.993,2020-9-18T16:55:14Z
2020-09-18T14:57:24Z,42.805,6.029,13.2980,4.59980,2470.007,2020-9-18T16:58:16Z
2020-09-18T15:00:29Z,42.805,6.029,13.2982,4.59979,2469.993,2020-9-18T17:01:21Z
2020-09-18T15:03:33Z,42.805,6.029,13.2979,4.59981,2470.007,2020-9-18T17:04:25Z
2020-09-18T15:06:37Z,42.805,6.029,13.2980,4.59981,2469.993,2020-9-18T17:07:28Z
2020-09-18T15:09:39Z,42.805,6.029,13.2981,4.59981,2470.017,2020-9-18T17:10:31Z
2020-09-18T15:12:40Z,42.805,6.029,13.2980,4.59981,2469.993,2020-9-18T17:13:32Z